Location: Gollag?dem
(16.8053°N, 80.8024°E)
Time: 10:18:32
(UTC+00:00)

Cosmos 1934 Rocket - Pass Details

Date: 13 August 2020
Orbit: 937 x 1000 km, 83.0° (Epoch: 18 September)

Event Time Altitude Azimuth Distance (km) Brightness Sun altitude
Exits shadow 14:23:54 21° 153° (SSE) 2,049 5.3 -19.2°
Maximum altitude 14:27:48 46° 91° (E) 1,311 4.2 -20.0°
Drops below altitude 10° 14:33:49 10° 20° (NNE) 2,766 6.4 -21.4°
Sets 14:36:27 0° 14° (NNE) 3,715 7.2 -21.9°
